sat.trackr.live / text

‹ back to catalog

ONEWEB-0233

NORAD 48795 · 2021-045AE

PAYLOAD ACTIVE UNKNOWN

§ Identity

Operator
Country
UK
Launch date
2021-05-28
Launch site
VOSTO
Launch vehicle
Mass (kg)
RCS (m²)

Purposes: comms

External: N2YO · Heavens-Above · Gunter

§ Orbital elements

Epoch: 2026-09-20T03:59:49.823232Z

Period
109.46 min
Inclination
87.8988°
Eccentricity
0.0001830
Mean motion
13.15547482 rev/d
Perigee alt
1,200.4 km
Apogee alt
1,203.2 km
Semi-major
7,579.9 km
B*
5.6678e-4
RAAN
240.2934°
Arg perigee
73.8887°
Mean anomaly
286.2445°
Rev number
25,678

§ Raw data

ONEWEB-02331 48795U 21045AE  26263.16654888  .00000226  00000+0  56678-3 0  99942 48795  87.8988 240.2934 0001830  73.8887 286.2445 13.15547482256789

JSON: /api/v1/satellites/48795 · /tle

For live sub-satellite position, see the globe view (requires WebGL).

§ Visibility from observer

Set your observer location to see the next 7 days of passes ≥ 10°. The values pass through the URL so the page stays shareable.

No JS? Fill the form by hand. The geolocation button needs JavaScript.